Location: *
(51.2167°N, 10.0667°E)
Time: 23:05:39
(UTC+00:00)

Cosmos 1782 Rocket - Pass Details

Date: 12 December 2019
Orbit: 606 x 632 km, 82.5° (Epoch: 22 January)

Event Time Altitude Azimuth Distance (km) Brightness Sun altitude
Rises 17:12:08 0° 349° (NNW) 2,890 7.0 -17.6°
Reaches altitude 10° 17:14:22 10° 349° (NNW) 1,977 6.1 -17.9°
Maximum altitude 17:18:45 85° 262° (W) 618 3.5 -18.6°
Drops below altitude 10° 17:23:05 10° 173° (S) 1,954 6.2 -19.3°
Sets 17:25:17 0° 173° (S) 2,853 7.0 -19.6°
